Location: Oshawa
(43.9000°N, 78.8670°W)
Time: 07:04:15
(UTC-04:00)

Transit 2A Rocket - Visible Passes

Search period start: 18 April 2014 00:00
Search period end: 28 April 2014 00:00
Orbit: 593 x 916 km, 66.7° (Epoch: 17 April)

Date Brightness Start Highest point End Pass type
(mag) Time Alt. Az. Time Alt. Az. Time Alt. Az.
18 Apr 6.9 00:22:58 10° N 00:25:02 20° N 00:25:02 20° N visible
18 Apr 6.9 23:41:55 10° N 23:44:24 17° NNE 23:44:24 17° NNE visible
19 Apr 7.3 01:23:37 10° NW 01:24:21 15° NW 01:24:21 15° NW visible
19 Apr 7.1 23:01:24 10° NNE 23:02:54 11° NNE 23:03:47 11° NE visible
20 Apr 6.9 00:42:05 10° NNW 00:43:44 22° NNW 00:43:44 22° NNW visible
21 Apr 6.5 00:00:42 10° NNW 00:03:09 27° N 00:03:09 27° N visible
21 Apr 6.4 23:19:29 10° N 23:22:35 23° NE 23:22:35 23° NE visible
22 Apr 7.2 01:01:44 10° NW 01:02:32 15° NW 01:02:32 15° NW visible
22 Apr 6.7 22:38:30 10° N 22:41:12 15° NE 22:42:02 15° NE visible
23 Apr 6.6 00:20:01 10° NNW 00:21:59 26° NW 00:21:59 26° NW visible
23 Apr 7.1 21:58:22 10° NNE 21:59:11 10° NNE 22:00:00 10° NE visible
23 Apr 5.8 23:38:30 10° NNW 23:41:28 38° N 23:41:28 38° N visible
24 Apr 5.7 22:57:09 10° NNW 23:00:57 33° NE 23:00:57 33° NE visible
25 Apr 7.1 00:40:00 10° NW 00:40:55 15° WNW 00:40:55 15° WNW visible
25 Apr 6.2 22:15:59 10° N 22:19:25 21° NE 22:20:28 19° ENE visible
25 Apr 6.2 23:58:04 10° NW 00:00:26 29° WNW 00:00:26 29° WNW visible
26 Apr 6.8 21:35:05 10° N 21:37:29 14° NE 21:39:50 10° ENE visible
26 Apr 5.0 23:16:24 10° NNW 23:19:59 58° NNW 23:19:59 58° NNW visible
27 Apr 4.8 22:34:55 10° NNW 22:39:14 50° NE 22:39:33 49° ENE visible
